Location: ????????
(55.6189°N, 38.3031°E)
Time: 22:47:07
(UTC+00:00)

Cosmos 1980 Rocket - Pass Details

Date: 15 November 2019
Orbit: 827 x 851 km, 71.0° (Epoch: 06 December)

Event Time Altitude Azimuth Distance (km) Brightness Sun altitude
Exits shadow 00:24:40 24° 103° (ESE) 1,713 4.1 -38.0°
Drops below altitude 10° 00:26:59 10° 116° (ESE) 2,479 5.0 -37.7°
Sets 00:29:32 0° 123° (ESE) 3,409 5.7 -37.4°
